スペースウォッチ彗星

C/2011 KP36 ( Spacewatch )

English version
Home page
Updated on February 7, 2017

---------------------------------------------------------------------

・ プロフィール

発見日 2011年5月21日
発見光度 20.4等
発見者 T. H. Bressi (Kitt Peak)

・ 写真集

・ 軌道要素

Epoch 2016 May 12.0 TT = JDT 2457520.5
T 2016 May 26.89893 TT                                  MPCW
q   4.8833015            (2000.0)            P               Q
z  +0.0260358      Peri.  180.59804     +0.99445374     +0.09830333
 +/-0.0000000      Node   173.40038     -0.09509496     +0.99227971
e   0.8728593      Incl.   18.98676     -0.04492997     +0.07561374
From 2191 observations 2011 May 21-2016 Nov. 8, mean residual 0".4.

・ 星図

・ 光度変化

        m1 = 4.0 + 5 logΔ + 10.0 log r

---------------------------------------------------------------------

軌道要素はM.P.E.C. 2016-V116に掲載されたものです。
星図はステラナビゲータ Ver.8 (アストロアーツ) で作成したものです。
光度グラフはComet for Windowsで作成したものです。

---------------------------------------------------------------------

Copyright(C) Seiichi Yoshida (comet@aerith.net). All rights reserved.